Regional Weather Roundup
Issued by NWS

Home | Current Version | Previous Version | Graphics & Text | Print | Product List | Glossary On
Versions: 1 2 3 4 5 6 7 8 9 10 11 12 13 14 15 16 17 18 19 20 21 22 23 24 25 26 27 28 29 30 31 32 33 34 35 36 37 38 39 40 41 42 43 44 45 46 47 48 49 50
000
ASUS45 KTFX 221010
RWRMT
MONTANA REGIONAL WEATHER ROUNDUP
NATIONAL WEATHER SERVICE GREAT FALLS MT
300 AM MST SUN JAN 22 2017

NOTE: "FAIR" INDICATES FEW OR NO CLOUDS BELOW 12000 FEET WITH NO
SIGNIFICANT WEATHER AND/OR OBSTRUCTIONS TO VISIBILITY.

MTZ001>007-043-221100-
WEST OF THE DIVIDE

CITY           SKY/WX    TMP DP  RH WIND       PRES   REMARKS
KALISPELL      LGT SNOW  23  22  96 CALM      29.80R FOG
MISSOULA       CLOUDY    22  20  92 E3        29.83S
BUTTE          CLOUDY    10   7  87 CALM      29.80R
MULLAN PASS    LGT SNOW  25  22  88 CALM      29.68R FOG
ANACONDA         N/A     27  18  69 S7        29.79R WCI  19
DEER LODGE       N/A     14  10  85 W6        29.82R WCI   5
EUREKA           N/A     25  25 100 CALM      29.81S
HAMILTON         N/A     23  19  86 CALM      29.80R
PLAINS           N/A     20  15  81 CALM      29.82S VSB 0
RONAN            N/A     26  24  92 CALM      29.85R VSB 0
$$

MTZ008-052>055-221100-
SOUTHWEST MONTANA

CITY           SKY/WX    TMP DP  RH WIND       PRES   REMARKS
BOZEMAN        CLOUDY    17  13  84 SW6       29.81R WCI   9
DILLON         CLOUDY   N/A N/A N/A S10       29.81R
W YELLOWSTONE  FLURRIES  23  19  86 SW10      29.84R WCI  12
ENNIS          CLOUDY    25  18  74 S9        29.86R WCI  15
TWIN BRIDGES     N/A     11   3  70 S2        29.83R
$$

MTZ009-010-012-014-046-048-049-054-221100-
EAST SLOPES AND CENTRAL MONTANA

CITY           SKY/WX    TMP DP  RH WIND       PRES   REMARKS
CUT BANK       PTCLDY    19  17  92 N9        29.76S WCI   8
GREAT FALLS    CLOUDY    24  18  77 SW3       29.78R
MALMSTROM AFB  CLOUDY    24  21  89 SW5       29.79R
HELENA         CLOUDY    15  10  80 CALM      29.82R
AUGUSTA        MOCLDY    19  16  88 W3        29.76R
BOWMANS CRNR     N/A     23  18  81 S10       29.74R WCI  12
CHOTEAU          N/A     23  19  86 CALM      29.78R
CONRAD           N/A     19  15  84 CALM      29.80R
POWER          MOCLDY    22  18  83 N9        29.76R WCI  12
RAYNESFORD     MOCLDY    27  22  79 MISG      29.77R
ULM            MOCLDY    26  22  85 MISG      29.78R
$$

MTZ011-013-016-021-045-047-050-051-221100-
NORTH CENTRAL MONTANA

CITY           SKY/WX    TMP DP  RH WIND       PRES   REMARKS
HAVRE          CLOUDY    25  23  92 SW10      29.79R WCI  15
LEWISTOWN      CLOUDY    23  17  78 SW6       29.75R WCI  16
CHINOOK          N/A     27  25  93 W7        29.78R WCI  19
DENTON           N/A     20  16  83 S5        29.74R
GEYSER         MOCLDY    28  21  76 W8        29.75R WCI  19
GRASS RANGE      N/A     28  20  72 W22       29.71R WCI  14
JUDITH GAP       N/A     25  15  67 NW5       29.74R
ROY              N/A     24  20  84 MISG      29.73R
STANFORD         N/A     28  20  73 CALM      29.74R
WINIFRED         N/A     26  20  80 MISG      29.75R
$$

MTZ017>020-022>027-061-062-221100-
NORTHEAST MONTANA

CITY           SKY/WX    TMP DP  RH WIND       PRES   REMARKS
GLASGOW        CLOUDY    26  25  96 NW12      29.73R FOG     WCI  16
JORDAN           N/A     19  16  88 W7        29.74R WCI  10
SIDNEY         CLOUDY    27  24  89 NW9       29.72R FOG     WCI  18
WOLF POINT     CLOUDY    27  24  89 SW6       29.74R WCI  20
PLENTYWOOD       N/A     28  28 100 W9        29.68R WCI  20
POPLAR           N/A     21  19  93 W6        29.73R WCI  14
$$

MTZ028>42-056>058-221100-
SOUTHCENTRAL AND SOUTHEAST MONTANA

CITY           SKY/WX    TMP DP  RH WIND       PRES   REMARKS
BAKER          CLOUDY    18  15  88 W14       29.72R WCI   4
BILLINGS       CLOUDY    28  19  69 SW15      29.77R WCI  16
LIVINGSTON     CLOUDY    27  18  69 W10       29.78R WCI  17
MILES CITY     CLOUDY    13  10  88 SW7       29.76R WCI   3
BIG TIMBER     PTCLDY    28  19  69 W13       29.78R WCI  18
EKALAKA          N/A     24  19  81 SW8       29.72R WCI  15
FORSYTH          N/A     19  19 100 SW5       29.75R
HARLOWTON      MOCLDY    24  18  78 W10       29.76R WCI  14
LAUREL           N/A     24  12  60 CALM      29.78R
$$

REGIONAL REPORTS...DAKOTAS

CITY           SKY/WX    TMP DP  RH WIND       PRES   REMARKS
WILLISTON      CLOUDY    30  28  92 W12       29.69R WCI  20
MINOT          CLOUDY    32  28  85 W10       29.63R WCI  24
DICKINSON      PTCLDY    13  10  88 NW7       29.67R WCI   3
BEACH            N/A     16  16 100 W15       29.73R WCI   1
CROSBY         CLOUDY    28  28 100 W9        29.69R FOG     WCI  20
TIOGA          CLOUDY    28  28 100 W15       29.67R FOG     WCI  17
WATFORD CITY   CLOUDY    28  28 100 W9        29.69R WCI  20
BISMARCK       CLOUDY    26  24  92 W3        29.69R FOG
GRAND FORKS    CLOUDY    34  32  92 W3        29.64R FOG
FARGO          FOG       36  33  89 NW3       29.64R VSB 1/2
BUFFALO SD       N/A     23  19  85 NW7       29.64R WCI  15
RAPID CITY     CLOUDY    27  20  75 NW8       29.72R WCI  19
$$

REGIONAL REPORTS...WYOMING/IDAHO/WASHINGTON

CITY           SKY/WX    TMP DP  RH WIND       PRES   REMARKS
GILLETTE       CLOUDY    26  21  81 W7        29.74R WCI  18
SHERIDAN       CLOUDY    27  17  66 SW6       29.76R WCI  20
BUFFALO WY     CLOUDY    28  15  58 NW3       29.75R
CODY           CLOUDY    33  16  49 W10G20    29.78R WCI  25
YELLOWSTONE LA   N/A     18  14  84 VRB5      29.83R
IDAHO FALLS    CLOUDY    23  22  96 CALM      29.92R
SALMON         CLOUDY    12  10  92 CALM      29.88R
BOISE          PTCLDY    36  28  73 E13       29.82S WCI  27
SPOKANE        MOCLDY    35  32  88 SE9       29.71S WCI  28
$$

REGIONAL REPORTS...ALBERTA

CITY           SKY/WX    TMP DP  RH WIND       PRES   REMARKS
EDMONTON       CLOUDY    18  12  79 N5        29.89R VSB 3/4
CALGARY        CLOUDY    23  21  93 N8        29.79R FOG     WCI  14
LETHBRIDGE     CLOUDY    23 N/A N/A NW3       29.80R
MEDICINE HAT   CLOUDY    28  27  93 W5        29.80R
$$

REGIONAL REPORTS...SASKATCHEWAN

CITY           SKY/WX    TMP DP  RH WIND       PRES   REMARKS
SWIFT CURRENT  CLOUDY    27  27 100 NW14      29.67R FOG     WCI  15
REGINA         FLURRIES  25  23  93 NW7       29.65R WCI  17
SASKATOON      LGT SNOW  27  25  93 NW9       29.71R WCI  17
ROCKGLEN         N/A     27  25  93 W7          N/A  WCI  19
$$



USA.gov is the U.S. government's official web portal to all federal, state and local government web resources and services.